sat.trackr.live / text

‹ back to catalog

STARLINK-3746

NORAD 52268 · 2022-041H

PAYLOAD ACTIVE UNKNOWN

§ Identity

Operator
Country
US
Launch date
2022-04-21
Launch site
AFETR
Launch vehicle
Mass (kg)
RCS (m²)

Purposes: comms

External: N2YO · Heavens-Above · Gunter

§ Orbital elements

Epoch: 2026-05-25T02:52:34.304736Z

Period
95.44 min
Inclination
53.2148°
Eccentricity
0.0001294
Mean motion
15.08835944 rev/d
Perigee alt
538.9 km
Apogee alt
540.7 km
Semi-major
6,917.9 km
B*
6.2766e-5
RAAN
125.9346°
Arg perigee
85.5036°
Mean anomaly
274.6104°
Rev number
22,590

§ Raw data

STARLINK-37461 52268U 22041H   26145.11984149  .00000711  00000+0  62766-4 0  99962 52268  53.2148 125.9346 0001294  85.5036 274.6104 15.08835944225900

JSON: /api/v1/satellites/52268 · /tle

For live sub-satellite position, see the globe view (requires WebGL).

§ Visibility from observer

Set your observer location to see the next 7 days of passes ≥ 10°. The values pass through the URL so the page stays shareable.

No JS? Fill the form by hand. The geolocation button needs JavaScript.